Home > Weather > Bournemouth > Past weeks

Flag for United Kingdom Weather for the Past 2 Weeks in Bournemouth, England, United Kingdom

Now
45 °F

Passing clouds.


Feels Like: 40 °F
Forecast: 36 / 52 °F
Wind: 9 mph from Northwest

Location: Bournemouth Airport

Current Time: Apr 29, 2016 at 8:47:23 PM

Latest Report: Apr 29, 2016 at 8:20 PM


Visibility: N/A

Pressure: 29.95 "Hg

Humidity: 66%

Dew Point: 34 °F

Location of BournemouthLocation

Historic Weather in Bournemouth — Graph

°F

Bournemouth Temperature Yesterday

Maximum temperature yesterday: 54 °F (at 2:20 PM)
Minimum temperature yesterday: 28 °F (at 6:20 AM)
Average temperature yesterday: 47 °F

High & Low Weather Summary for the Past Weeks

 TemperatureHumidityPressure
High64 °F (Apr 21, 2:20 PM)100% (Apr 14, 9:50 PM)30.39 "Hg (Apr 14, 9:50 PM)
Low27 °F (Apr 17, 6:20 AM)31% (Apr 20, 12:20 PM)29.42 "Hg (Apr 15, 3:50 PM)
Average48 °F70%29.99 "Hg
* Reported Apr 14 7:20 PM — Apr 29 7:20 PM, Bournemouth, Weather by CustomWeather, © 2016

Note: Actual official high and low records may vary slightly from our data, if they occured in-between our weather recording intervals... More about our weather records

Advertising

Bournemouth Weather History for the Previous 24 Hours

Scroll right to see more
 ConditionsComfort  
Time TempWeatherWind HumidityBarometerVisibility
7:20 PM
Fri, Apr 29
48 °FSunny.14 mph58%29.92 "Hg10 mi
6:50 PM50 °FSunny.14 mph50%29.89 "Hg10 mi
6:20 PM52 °FSunny.14 mph58%29.89 "Hg10 mi
5:50 PM52 °FScattered showers. Scattered clouds.6 mph58%29.89 "HgN/A
5:20 PM50 °FScattered showers. Scattered clouds.8 mph67%29.89 "HgN/A
4:50 PM48 °FScattered showers. Partly sunny.15 mph71%29.89 "HgN/A
4:20 PM52 °FScattered showers. Partly sunny.17 mph47%29.89 "HgN/A
3:50 PM52 °FScattered showers. Partly sunny.14 mph54%29.89 "HgN/A
3:20 PM52 °FScattered clouds.16 mph54%29.89 "HgN/A
2:50 PM52 °FScattered clouds.18 mph50%29.89 "HgN/A
2:20 PM52 °FPassing clouds.20 mph50%29.89 "HgN/A
1:50 PM50 °FPassing clouds.21 mph62%29.86 "HgN/A
1:20 PM50 °FPassing clouds.17 mph54%29.86 "HgN/A
12:50 PM48 °FScattered showers. Scattered clouds.18 mph66%29.86 "HgN/A
12:20 PM48 °FScattered showers. Scattered clouds.17 mph62%29.86 "HgN/A
11:50 AM48 °FScattered showers. Partly sunny.16 mph62%29.86 "HgN/A
11:20 AM50 °FScattered showers. Scattered clouds.15 mph58%29.86 "HgN/A
10:50 AM48 °FScattered clouds.21 mph58%29.86 "HgN/A
10:20 AM48 °FScattered clouds.21 mph62%29.86 "HgN/A
9:20 AM46 °FPassing clouds.18 mph66%29.86 "HgN/A
8:50 AM46 °FPassing clouds.18 mph66%29.86 "HgN/A
7:50 AM43 °FSunny.12 mph71%29.86 "Hg10 mi
7:20 AM43 °FSunny.10 mph71%29.86 "Hg10 mi
6:50 AM41 °FSunny.9 mph76%29.86 "Hg10 mi
6:20 AM41 °FClear.9 mph70%29.86 "Hg10 mi
10:50 PM
Thu, Apr 28
46 °FPassing clouds.13 mph93%29.83 "Hg4 mi
10:20 PM46 °FRain. Fog.14 mph93%29.86 "Hg2 mi
9:50 PM48 °FLight rain. Passing clouds.16 mph87%29.86 "HgN/A
9:20 PM48 °FScattered showers. Passing clouds.15 mph87%29.86 "HgN/A
8:50 PM48 °FScattered showers. Partly sunny.15 mph76%29.86 "HgN/A
8:20 PM48 °FScattered clouds.18 mph76%29.86 "HgN/A
Weather by CustomWeather, © 2016

See weather overviewHow to use our weather pages